This demonstration page uses our WeatherBlox Daily Observations layout. Learn more.

Left ArrowRight Arrow

53.62937, 11.41316

Hourly Observations for November 8, 2018

Temp ( °F °C ) Dew Point ( °F °C ) Humidity (%) Winds ( mph kmh ) Pressure ( in mb ) Visibility ( mi km ) Precip ( " mm )
6:50 am 06:50 Mostly Clear 46 8 45 7 93 93 VRB 2 4 30.03 1017 7 11 N/A
7:20 am 07:20 Mostly Cloudy 46 8 45 7 93 93 VRB 2 4 30.06 1018 30 48 N/A
7:50 am 07:50 Mostly Cloudy 48 9 46 8 94 94 VRB 2 4 30.06 1018 30 48 N/A
8:20 am 08:20 Mostly Sunny 48 9 46 8 94 94 VRB 2 4 30.09 1019 7 11 N/A
8:50 am 08:50 Mostly Sunny 50 10 46 8 88 88 VRB 2 4 30.09 1019 7 11 N/A
9:20 am 09:20 Mostly Sunny 50 10 46 8 88 88 VRB 1 2 30.09 1019 7 11 N/A
9:50 am 09:50 Mostly Sunny 52 11 46 8 82 82 VRB 2 4 30.12 1020 7 11 N/A
10:20 am 10:20 Mostly Sunny 52 11 48 9 88 88 S 3 6 30.12 1020 7 11 N/A
10:50 am 10:50 Mostly Sunny 52 11 48 9 88 88 SSW 5 7 30.12 1020 7 11 N/A
11:20 am 11:20 Mostly Sunny 52 11 48 9 88 88 S 3 6 30.12 1020 7 11 N/A
11:50 am 11:50 Mostly Sunny 54 12 48 9 82 82 S 3 6 30.12 1020 7 11 N/A
12:20 pm 12:20 Sunny 55 13 48 9 77 77 SSW 9 15 30.12 1020 30 48 N/A
12:50 pm 12:50 Mostly Sunny 55 13 48 9 77 77 SSW 9 15 30.12 1020 7 11 N/A
1:20 pm 13:20 Mostly Sunny 57 14 48 9 72 72 SSW 9 15 30.15 1021 7 11 N/A
1:50 pm 13:50 Mostly Sunny 57 14 48 9 72 72 SSW 10 17 30.15 1021 7 11 N/A
2:20 pm 14:20 Mostly Sunny 57 14 46 8 67 67 WSW 6 9 30.15 1021 7 11 N/A
2:50 pm 14:50 Partly Cloudy 55 13 46 8 72 72 WSW 6 9 30.15 1021 30 48 N/A
3:20 pm 15:20 Partly Cloudy 55 13 46 8 72 72 WSW 5 7 30.15 1021 30 48 N/A
3:50 pm 15:50 Partly Cloudy 54 12 46 8 77 77 WSW 5 7 30.15 1021 30 48 N/A
4:20 pm 16:20 Mostly Sunny 52 11 45 7 77 77 VRB 2 4 30.15 1021 7 11 N/A
4:50 pm 16:50 Mostly Clear 50 10 45 7 82 82 VRB 1 2 30.15 1021 7 11 N/A
5:20 pm 17:20 Mostly Clear 48 9 46 8 94 94 Calm 30.15 1021 7 11 N/A
5:50 pm 17:50 Mostly Clear with Patchy Fog 46 8 45 7 93 93 VRB 1 2 30.15 1021 30 48 N/A
6:20 pm 18:20 Mostly Clear with Patchy Fog 45 7 45 7 100 100 VRB 1 2 30.18 1022 30 48 N/A
6:50 pm 18:50 Mostly Clear with Fog 43 6 43 6 100 100 VRB 1 2 30.18 1022 0 1 N/A

Powered by AerisWeather